Location: Alsip
(41.6689°N, 87.7387°W)
Time: 14:37:03
(UTC+00:00)

IRS-P3 - Pass Details

Date: 14 July 2020
Orbit: 814 x 818 km, 98.8° (Epoch: 12 August)

Event Time Altitude Azimuth Distance (km) Brightness Sun altitude
Rises 08:36:00 0° 11° (NNE) 3,351 8.5 -16.8°
Reaches altitude 10° 08:38:21 10° 10° (N) 2,416 7.5 -16.5°
Maximum altitude 08:43:41 74° 287° (WNW) 851 4.1 -15.9°
Enters shadow 08:47:05 23° 205° (SSW) 1,676 5.2 -15.5°
